Wetbulb
58.10 58.05 57.92 57.78 57.76 57.90 58.29 58.81 59.11 59.57 60.26 60.36 60.42 60.67 61.46 61.47 60.66 59.15 53.80 61.78 64.15 72.75 70.59 59.60 58.67 59.16 61.42 58.25 62.60 61.93 51.55 50.41 53.82 55.50 58.04 66.17 63.01 66.13 68.16 64.51 66.05 66.22 65.89 67.34 70.17
58.21 58.17 58.01 57.70 57.61 57.80 57.88 57.76 58.41 58.91 59.46 60.03 60.26 60.61 61.36 61.59 56.69 54.85 64.48 73.77 74.24 71.40 58.98 57.95 57.40 56.09 54.01 55.21 56.38 54.88 50.46 52.68 57.06 56.73 59.96 64.66 64.04 65.22 64.35 62.52 64.45 65.42 68.01 69.40 69.61
58.17 57.98 57.81 57.65 57.49 57.39 57.46 57.55 57.49 58.09 58.69 59.68 60.04 60.66 61.55 60.62 50.84 53.15 70.39 75.29 73.36 67.40 59.11 58.05 57.00 54.40 51.71 52.84 54.75 55.77 51.24 56.11 59.21 59.10 59.27 64.07 64.27 67.20 63.25 60.20 63.21 63.02 65.88 67.78 68.97
57.78 57.67 57.61 57.44 57.30 57.29 57.20 57.14 57.05 57.37 58.38 59.33 60.01 60.93 61.68 55.53 44.98 55.40 72.74 73.49 72.01 59.71 57.12 57.00 55.49 52.27 50.30 50.21 53.91 53.04 57.67 57.93 59.14 60.94 58.75 62.65 65.71 63.95 64.35 63.44 66.59 66.01 67.65 67.67 67.99
57.46 57.34 57.49 57.16 57.16 56.97 56.85 56.69 56.49 56.93 58.36 59.18 60.04 61.39 55.35 46.92 51.80 57.11 73.20 70.62 59.33 56.71 55.66 55.26 53.57 51.03 48.55 50.34 53.74 53.44 53.98 56.35 58.44 59.67 58.64 63.93 63.30 63.66 64.29 66.20 67.39 66.84 68.12 67.50 68.04
57.24 57.44 56.95 57.04 57.03 56.85 56.73 56.49 56.18 57.14 58.17 59.21 60.55 61.78 53.32 44.24 54.32 57.90 60.95 58.19 57.16 55.30 54.19 54.52 53.78 53.41 50.42 50.71 51.70 54.39 53.62 54.30 56.17 57.57 58.58 60.13 62.06 61.81 63.14 66.90 66.51 66.51 66.75 67.59 67.88
56.97 57.38 56.67 56.72 56.78 56.86 56.40 56.19 56.48 57.48 58.02 59.26 61.64 60.48 51.94 48.64 56.42 57.61 54.81 56.41 56.82 55.64 53.26 55.55 55.04 52.27 51.52 50.49 54.91 54.72 51.53 53.72 54.40 56.21 56.43 61.14 57.33 58.61 63.34 66.10 65.05 65.39 66.04 67.25 67.94
56.71 56.90 57.03 56.61 56.08 56.16 55.94 55.69 56.67 57.52 58.48 59.91 61.95 54.39 45.85 52.83 56.25 58.60 54.10 53.23 55.15 56.81 55.80 56.57 55.26 52.20 50.18 52.16 52.45 51.69 51.02 47.24 53.40 55.73 57.08 56.56 49.73 55.51 63.58 64.56 63.76 64.99 65.79 66.04 67.00
56.53 56.63 55.93 55.68 55.58 55.43 55.20 55.98 57.11 58.62 59.55 60.70 51.64 48.24 46.48 59.00 54.07 54.92 54.53 53.22 52.77 51.72 53.82 58.99 53.32 48.90 49.96 47.23 45.68 47.45 43.73 46.66 48.87 54.76 55.55 53.54 49.82 59.18 62.80 63.30 63.09 63.77 64.97 64.86 65.71
55.88 55.64 55.53 55.16 55.04 54.93 55.18 56.09 56.35 57.12 57.89 60.13 59.54 49.58 51.65 49.14 53.49 53.46 53.33 54.29 50.84 51.66 52.51 51.12 47.43 45.69 44.14 44.55 41.09 43.09 42.91 45.39 45.20 50.32 54.90 52.28 52.40 58.41 60.81 61.00 61.01 62.14 62.21 64.16 65.51
55.76 55.93 55.43 54.62 54.75 54.31 51.93 49.38 45.84 45.77 49.30 43.51 44.20 49.66 52.46 53.81 53.91 51.74 52.23 51.79 49.98 49.87 45.19 46.39 44.99 41.72 44.08 45.83 47.82 45.81 43.22 43.96 47.42 51.31 52.33 51.39 52.21 55.69 58.64 58.43 58.00 57.97 59.49 62.13 64.31
55.50 55.69 54.44 54.16 54.03 54.25 48.69 48.00 48.10 49.74 45.77 50.85 50.04 50.91 52.73 51.64 49.63 50.16 51.10 48.82 47.06 44.44 45.50 45.20 42.46 46.77 47.46 47.63 45.95 43.95 42.84 43.29 47.53 52.21 50.90 50.81 51.09 54.80 57.10 57.25 57.21 56.94 60.90 63.21 62.95
56.12 55.44 54.28 53.81 53.82 49.54 46.50 48.74 52.39 50.64 43.86 49.12 50.65 50.86 51.55 52.20 49.30 48.59 50.41 48.18 47.14 44.58 44.43 43.09 45.98 49.52 47.85 45.88 44.56 41.74 41.17 42.86 45.07 49.68 51.94 49.78 46.54 50.70 56.08 57.36 57.83 59.81 61.96 63.73 64.04
56.03 55.30 53.65 53.15 47.84 47.80 48.52 50.36 52.88 50.70 40.65 44.60 47.63 51.48 50.68 50.27 47.32 51.68 50.41 49.67 47.41 46.30 45.78 44.89 48.52 48.20 45.27 45.46 45.22 40.10 46.29 46.71 47.44 45.29 41.13 47.96 38.38 47.79 51.41 53.77 56.62 58.49 59.98 61.70 63.67
55.76 54.81 52.69 52.81 46.77 49.77 51.98 52.55 47.70 49.10 33.17 48.65 48.71 52.98 48.25 48.40 47.41 48.68 51.42 50.77 47.02 46.94 45.60 45.54 45.87 45.54 44.81 46.67 46.97 45.35 47.28 46.15 47.73 42.19 40.87 43.52 41.31 44.82 49.58 50.56 53.84 57.89 59.66 61.12 61.87
54.94 54.45 52.79 50.27 50.10 51.30 52.54 51.42 48.78 40.20 34.97 46.25 47.94 46.90 46.45 45.19 46.81 49.29 49.45 50.89 50.41 47.25 45.35 46.33 48.70 47.88 47.58 48.98 47.82 48.51 45.57 43.92 41.60 40.61 37.72 40.34 41.88 41.79 47.27 50.98 54.94 57.97 59.60 61.28 62.38
53.40 51.94 51.53 52.34 47.90 52.39 50.49 49.11 40.57 36.24 46.07 46.04 43.54 45.35 43.76 43.09 45.61 47.15 46.03 44.32 43.49 39.26 39.35 44.98 46.43 48.52 49.28 44.94 46.60 45.25 40.87 36.28 37.69 36.04 36.87 38.33 42.48 45.10 51.10 55.31 56.72 57.54 59.54 61.42 62.82
51.47 51.11 49.61 51.75 50.77 50.73 49.93 46.49 36.36 43.28 44.57 47.78 45.24 44.75 43.83 45.05 43.74 45.03 44.16 42.63 43.66 42.77 39.54 39.33 43.10 47.62 49.86 47.93 46.17 42.46 41.19 37.16 33.39 33.76 36.67 42.43 40.77 47.15 54.12 56.79 58.18 60.00 60.71 62.51 63.01
51.18 47.54 46.27 48.34 51.37 49.61 48.35 39.20 40.33 43.77 49.74 46.48 44.62 42.83 41.02 45.55 46.03 43.93 42.65 42.47 45.09 45.57 41.02 39.35 43.30 50.29 51.22 48.79 47.85 42.17 40.60 42.42 37.31 35.71 37.86 41.01 46.17 50.29 54.12 55.37 56.34 57.86 58.80 60.78 61.89
47.82 49.37 50.72 51.67 52.75 50.14 46.02 40.28 44.57 49.22 52.82 51.53 43.48 44.43 41.37 42.69 44.32 42.49 42.44 46.03 46.25 46.74 45.19 43.03 41.51 46.16 50.50 50.16 50.92 48.88 47.25 42.73 39.80 35.50 34.96 39.58 43.48 44.59 49.29 52.98 54.62 56.41 56.67 57.46 59.41
50.26 51.43 54.37 52.26 51.26 49.37 42.07 42.84 48.76 53.49 53.52 50.69 48.54 43.95 43.17 43.97 44.29 42.88 44.20 47.05 48.74 45.81 46.73 44.54 44.11 46.82 48.03 46.24 44.70 46.63 44.25 41.79 40.72 38.81 36.97 36.12 41.30 49.54 51.60 53.68 55.16 56.49 57.20 57.46 58.24
50.15 50.82 54.23 52.06 47.29 42.06 43.66 47.25 50.01 52.04 53.07 52.00 50.71 45.95 44.88 45.87 43.13 42.74 44.83 47.52 52.03 48.58 45.82 47.13 43.84 41.28 43.03 46.50 46.72 46.53 44.31 42.06 39.33 38.56 37.28 38.58 41.82 53.42 53.78 55.55 56.26 55.99 56.95 58.15 63.01
48.78 50.39 53.79 51.57 43.01 42.47 45.22 48.75 51.40 50.52 51.69 51.76 49.87 51.41 49.47 47.58 46.56 48.15 49.19 52.65 54.22 51.58 49.34 48.87 41.49 39.36 42.39 44.19 47.10 45.61 45.38 41.11 40.15 38.83 38.55 39.66 40.99 53.89 53.70 54.29 56.14 56.10 57.10 60.09 65.05
50.79 48.31 49.90 48.31 44.93 44.43 44.84 47.16 47.95 53.03 54.03 52.66 52.53 52.11 49.23 47.16 47.12 48.15 49.28 52.48 54.04 51.86 59.04 51.51 39.45 41.06 39.54 40.67 43.51 44.01 46.38 44.94 41.46 38.40 38.14 39.85 42.75 46.14 53.01 53.20 55.20 55.72 57.88 63.70 64.92
50.33 48.47 48.36 45.26 46.98 46.70 45.30 47.55 48.64 48.63 53.50 53.31 51.98 51.48 48.78 45.65 46.23 47.27 49.27 48.98 51.11 54.78 49.09 47.16 42.58 42.81 41.71 44.40 46.20 46.60 46.32 47.53 43.04 42.72 41.93 43.51 42.11 47.98 51.50 53.81 54.87 57.91 62.87 63.43 63.29
47.39 48.30 48.07 46.56 48.13 47.66 45.93 47.41 49.13 51.08 50.98 51.25 50.43 51.48 51.00 48.24 48.03 47.42 47.27 45.83 45.58 49.07 45.07 45.58 42.27 43.88 41.23 45.73 46.57 46.26 47.39 49.32 50.10 46.67 47.09 48.42 47.92 53.57 54.57 56.46 56.75 60.70 62.07 61.50 61.02
49.30 50.34 48.91 46.88 48.31 45.11 45.87 49.06 52.38 53.16 53.30 54.44 52.80 49.94 49.94 49.87 52.12 49.02 49.64 49.90 49.73 46.84 46.41 44.15 42.66 40.27 38.31 43.53 43.95 40.48 46.05 50.95 53.58 54.07 51.80 47.05 49.73 57.15 56.93 58.50 59.22 60.48 60.06 59.29 61.02
MSLP
1016.81 1016.60 1016.41 1016.21 1016.01 1015.78 1015.52 1015.28 1014.97 1014.61 1014.16 1013.72 1013.33 1012.97 1012.60 1012.06 1011.05 1010.67 1009.55 1007.55 1007.63 1007.68 1007.62 1007.65 1008.00 1008.13 1008.65 1008.84 1008.75 1008.80 1009.36 1009.09 1008.28 1008.20 1008.05 1008.00 1008.29 1008.74 1008.67 1009.28 1009.75 1010.20 1010.52 1010.92 1012.01
1016.72 1016.48 1016.25 1016.05 1015.86 1015.65 1015.43 1015.23 1014.92 1014.56 1014.24 1013.76 1013.30 1012.87 1012.52 1012.16 1011.48 1009.68 1006.88 1006.87 1007.33 1007.26 1007.39 1007.72 1007.76 1007.88 1008.29 1008.29 1008.35 1008.57 1008.91 1008.11 1007.24 1007.29 1007.49 1007.59 1007.93 1008.56 1008.95 1009.09 1009.76 1010.41 1010.88 1011.37 1012.21
1016.58 1016.34 1016.07 1015.86 1015.64 1015.44 1015.27 1015.08 1014.88 1014.54 1014.18 1013.74 1013.25 1012.77 1012.42 1012.13 1011.09 1008.00 1006.57 1006.64 1006.84 1007.02 1007.28 1007.43 1007.51 1007.67 1007.96 1008.15 1007.98 1008.16 1007.87 1007.04 1006.63 1006.52 1006.64 1007.23 1007.60 1008.22 1008.58 1009.29 1009.05 1009.79 1010.93 1011.62 1012.44
1016.49 1016.22 1015.93 1015.60 1015.36 1015.17 1015.03 1014.85 1014.71 1014.47 1014.08 1013.65 1013.15 1012.65 1012.17 1011.87 1010.04 1007.05 1006.77 1006.75 1006.79 1006.92 1007.16 1007.36 1007.46 1007.73 1008.11 1008.30 1007.81 1007.59 1006.93 1006.43 1006.04 1005.97 1006.45 1007.07 1007.42 1007.83 1008.22 1008.41 1008.35 1009.30 1010.16 1011.14 1012.11
1016.37 1016.03 1015.67 1015.38 1015.10 1014.88 1014.74 1014.60 1014.49 1014.30 1013.95 1013.56 1013.12 1012.61 1011.92 1011.18 1008.87 1006.87 1006.85 1006.84 1006.89 1006.99 1007.25 1007.37 1007.57 1008.07 1008.50 1008.32 1007.69 1007.33 1006.86 1006.39 1005.97 1005.87 1006.23 1006.66 1007.41 1008.00 1007.96 1008.15 1008.24 1009.25 1010.11 1010.72 1011.56
1016.17 1015.84 1015.48 1015.12 1014.82 1014.60 1014.44 1014.34 1014.22 1014.03 1013.77 1013.45 1013.05 1012.62 1012.10 1010.34 1007.18 1007.09 1007.00 1006.87 1007.03 1007.13 1007.35 1007.40 1007.71 1007.94 1008.26 1008.18 1007.99 1007.37 1006.99 1006.46 1005.87 1005.94 1006.25 1006.73 1007.56 1008.00 1008.04 1008.23 1008.93 1009.35 1009.99 1010.59 1011.09
1015.99 1015.63 1015.21 1014.83 1014.55 1014.32 1014.19 1014.08 1013.93 1013.75 1013.53 1013.30 1012.94 1012.61 1011.72 1008.41 1006.99 1007.20 1007.13 1007.03 1006.98 1007.23 1007.44 1007.52 1007.66 1007.98 1008.10 1008.22 1007.81 1007.60 1007.46 1006.51 1006.11 1005.95 1006.32 1006.70 1007.72 1008.24 1008.24 1008.54 1009.50 1010.00 1010.59 1010.99 1011.15
1015.73 1015.33 1014.97 1014.64 1014.35 1014.11 1013.92 1013.81 1013.64 1013.46 1013.25 1013.06 1012.87 1012.57 1010.69 1007.44 1007.17 1007.07 1007.03 1007.02 1007.04 1007.23 1007.49 1007.42 1007.64 1008.19 1008.49 1008.38 1008.18 1008.29 1007.84 1007.85 1006.76 1006.42 1006.28 1006.78 1007.50 1008.16 1008.55 1009.09 1009.93 1010.32 1010.66 1010.90 1011.04
1015.57 1015.19 1014.79 1014.45 1014.14 1013.90 1013.72 1013.52 1013.28 1013.10 1012.97 1012.87 1012.83 1012.22 1009.74 1007.26 1007.14 1006.60 1006.62 1006.99 1007.12 1007.21 1007.32 1007.41 1007.94 1008.80 1008.90 1009.18 1009.53 1009.41 1009.08 1008.59 1007.47 1006.71 1006.80 1007.28 1008.08 1008.85 1009.08 1009.52 1010.22 1010.60 1010.76 1010.60 1010.96
1015.47 1015.03 1014.63 1014.28 1013.97 1013.73 1013.44 1013.12 1012.91 1012.87 1012.90 1012.77 1012.34 1012.08 1009.02 1007.50 1006.78 1006.52 1006.72 1006.73 1007.10 1007.21 1007.66 1008.09 1009.07 1009.59 1010.07 1010.04 1010.42 1010.03 1009.72 1009.19 1008.64 1007.23 1007.40 1007.97 1008.85 1009.49 1009.49 1009.58 1010.02 1010.36 1010.54 1010.38 1010.82
1015.30 1014.86 1014.44 1014.07 1013.81 1013.68 1013.32 1012.88 1013.20 1012.95 1012.39 1011.00 1010.39 1009.72 1008.35 1007.31 1006.82 1006.56 1006.58 1006.81 1007.21 1007.80 1008.64 1009.21 1009.90 1010.33 1010.20 1010.07 1009.97 1009.99 1009.91 1009.58 1008.18 1007.38 1007.55 1008.57 1009.40 1009.66 1009.64 1009.84 1009.94 1010.29 1010.25 1010.24 1010.24
1015.10 1014.64 1014.25 1013.91 1013.68 1013.65 1013.68 1012.82 1011.47 1011.26 1010.87 1009.81 1009.64 1009.06 1008.06 1007.56 1007.05 1006.50 1006.38 1007.05 1007.60 1008.44 1008.94 1009.66 1009.98 1009.59 1009.71 1009.73 1009.84 1009.92 1009.82 1009.12 1008.09 1007.65 1008.22 1009.20 1010.05 1010.13 1009.96 1009.74 1010.19 1010.35 1010.01 1009.84 1009.81
1014.84 1014.39 1014.07 1013.79 1013.58 1013.74 1013.23 1011.73 1010.72 1010.65 1010.59 1009.16 1008.81 1008.28 1007.37 1007.34 1006.86 1006.41 1006.48 1007.08 1007.76 1008.59 1009.28 1009.88 1009.35 1009.10 1009.21 1009.22 1009.50 1009.55 1009.34 1008.71 1008.62 1008.25 1008.80 1009.53 1010.80 1010.80 1010.30 1010.40 1010.04 1009.84 1009.71 1009.51 1009.60
1014.55 1014.13 1013.90 1013.60 1014.10 1013.32 1012.37 1010.92 1010.66 1010.57 1010.58 1008.82 1008.02 1006.67 1006.82 1006.66 1006.48 1006.07 1006.28 1006.94 1007.89 1008.61 1009.48 1009.51 1008.71 1008.59 1008.57 1008.53 1008.70 1008.71 1008.01 1008.23 1008.63 1008.79 1009.59 1010.01 1011.71 1011.34 1011.23 1011.16 1010.60 1009.94 1009.56 1009.37 1009.20
1014.30 1013.93 1013.77 1013.72 1013.51 1012.85 1011.26 1010.79 1010.54 1010.47 1009.72 1007.83 1007.05 1006.00 1006.35 1006.53 1006.38 1006.30 1006.22 1006.67 1007.73 1008.37 1009.05 1008.72 1008.20 1008.05 1008.01 1007.64 1007.87 1007.89 1007.80 1008.36 1008.51 1009.45 1010.31 1011.02 1011.85 1011.34 1011.75 1011.81 1011.02 1010.23 1009.98 1009.16 1009.12
1013.91 1013.62 1013.56 1013.65 1013.49 1011.51 1010.94 1010.71 1010.61 1010.39 1008.48 1007.04 1006.28 1006.14 1006.45 1006.36 1006.30 1006.48 1006.57 1006.74 1007.57 1008.26 1008.59 1008.40 1007.72 1007.54 1006.87 1006.69 1007.07 1007.52 1008.08 1008.88 1009.82 1010.54 1011.69 1012.00 1012.32 1011.94 1011.88 1011.38 1010.96 1010.45 1010.09 1009.83 1009.32
1013.28 1012.78 1013.13 1012.56 1011.81 1010.92 1010.78 1010.85 1010.87 1009.72 1007.66 1006.79 1006.22 1006.12 1006.28 1006.55 1006.59 1006.58 1007.14 1007.60 1008.19 1009.03 1009.09 1008.28 1007.29 1006.47 1006.20 1006.68 1007.04 1007.67 1009.06 1010.42 1011.59 1012.34 1012.70 1012.40 1012.27 1010.88 1010.77 1010.64 1010.44 1010.42 1010.36 1009.90 1009.55
1012.91 1012.50 1012.44 1011.74 1011.22 1011.08 1010.77 1010.89 1010.53 1008.58 1007.33 1006.14 1005.96 1006.24 1006.56 1006.74 1006.89 1007.10 1007.55 1008.30 1008.53 1008.82 1009.26 1008.78 1007.44 1006.32 1005.93 1006.16 1006.78 1007.99 1009.06 1010.77 1012.32 1013.50 1013.09 1012.30 1011.92 1009.85 1009.72 1009.93 1009.93 1010.28 1010.05 1009.96 1009.88
1012.70 1012.65 1012.38 1010.53 1010.91 1011.43 1011.16 1011.32 1009.79 1008.27 1006.92 1006.18 1006.04 1006.47 1006.76 1006.80 1007.05 1007.36 1007.73 1008.23 1008.17 1008.40 1008.90 1008.75 1007.56 1006.20 1005.80 1005.87 1006.36 1008.11 1009.28 1010.48 1012.14 1013.69 1013.64 1012.82 1011.63 1009.84 1009.75 1009.75 1009.61 1009.88 1009.74 1010.16 1010.16
1012.67 1012.21 1011.13 1010.08 1010.46 1010.92 1011.20 1011.18 1009.40 1007.77 1006.56 1005.93 1005.99 1006.08 1006.88 1007.08 1007.33 1007.51 1007.72 1007.16 1007.56 1007.40 1007.63 1008.55 1008.01 1006.79 1006.29 1006.24 1006.67 1007.43 1009.17 1010.67 1012.12 1013.67 1014.03 1013.22 1012.42 1011.05 1009.95 1009.58 1009.39 1009.96 1010.36 1010.56 1010.21
1012.41 1011.68 1010.61 1010.16 1010.53 1010.89 1011.59 1010.70 1008.87 1007.05 1006.62 1006.03 1005.75 1006.09 1006.36 1006.73 1007.20 1007.44 1007.40 1006.53 1006.43 1007.03 1007.36 1008.20 1008.55 1007.77 1007.07 1007.44 1007.87 1008.39 1009.41 1011.08 1012.45 1013.46 1013.86 1013.79 1012.11 1010.12 1010.13 1009.44 1009.58 1010.01 1010.31 1010.24 1009.81
1012.22 1011.83 1010.77 1010.67 1011.17 1011.89 1011.28 1009.88 1008.45 1006.66 1005.88 1005.53 1005.49 1005.51 1005.88 1006.21 1007.04 1007.03 1006.72 1005.93 1005.92 1006.66 1007.58 1008.10 1008.92 1009.04 1008.57 1008.16 1008.29 1008.62 1009.63 1010.89 1012.60 1013.78 1014.00 1013.43 1011.37 1010.20 1009.92 1009.58 1009.74 1010.15 1010.27 1010.09 1009.76
1012.84 1012.10 1010.89 1010.62 1011.39 1011.72 1010.69 1009.48 1008.20 1006.87 1005.82 1005.28 1005.23 1004.98 1005.17 1005.95 1006.58 1006.54 1006.14 1005.91 1005.76 1006.48 1007.18 1008.02 1009.30 1009.83 1009.33 1009.18 1008.79 1009.19 1009.85 1010.84 1012.00 1012.82 1013.57 1013.37 1011.37 1010.13 1009.79 1009.89 1010.08 1010.32 1010.55 1010.44 1010.15
1013.20 1012.57 1011.81 1011.39 1011.47 1011.20 1010.63 1009.25 1007.90 1006.43 1005.85 1005.35 1005.08 1004.60 1005.31 1006.05 1006.26 1006.21 1006.13 1006.01 1006.02 1006.55 1006.88 1007.65 1009.92 1010.07 1010.09 1009.78 1009.64 1009.70 1009.94 1010.47 1011.38 1012.52 1012.89 1012.44 1011.19 1010.22 1010.42 1010.59 1010.61 1010.69 1010.76 1010.87 1010.64
1013.49 1013.60 1012.94 1012.24 1011.76 1011.16 1010.58 1009.41 1008.12 1006.95 1005.78 1005.51 1005.43 1005.78 1005.88 1006.36 1006.39 1006.66 1006.26 1006.25 1006.39 1006.84 1007.52 1008.37 1010.17 1010.43 1010.11 1009.99 1009.78 1009.61 1009.71 1010.15 1010.88 1011.22 1011.78 1011.36 1011.47 1010.98 1010.97 1010.90 1010.94 1010.82 1011.05 1011.20 1010.95
1014.48 1014.35 1013.28 1012.55 1011.86 1011.36 1010.50 1009.21 1007.96 1006.80 1006.22 1006.24 1006.10 1006.10 1005.90 1006.73 1006.67 1006.57 1006.69 1006.84 1006.99 1007.42 1008.30 1009.33 1010.67 1010.88 1010.91 1010.33 1010.08 1009.87 1009.58 1009.76 1010.29 1010.80 1011.15 1011.23 1011.25 1011.32 1011.15 1010.99 1011.05 1011.20 1011.36 1011.56 1011.47
1014.80 1014.50 1014.08 1012.88 1012.00 1011.26 1010.28 1009.02 1007.69 1007.00 1006.64 1006.32 1006.57 1006.65 1006.92 1006.90 1006.67 1006.69 1006.84 1007.12 1007.24 1008.04 1009.08 1010.10 1011.07 1012.07 1011.87 1011.07 1010.61 1010.40 1009.68 1009.74 1010.23 1010.65 1011.09 1011.30 1011.47 1011.52 1011.60 1011.51 1011.58 1011.65 1011.63 1011.86 1011.82
Wind_Speed
13 13 13 13 13 13 13 13 14 15 15 16 17 17 16 17 17 2 5 8 6 3 4 2 4 4 5 4 5 4 4 2 3 3 3 4 4 2 3 5 3 6 5 6 19
14 14 14 13 13 12 13 13 13 14 15 16 17 17 15 16 3 6 12 3 5 2 3 5 5 3 0 1 2 4 3 6 2 5 5 7 6 11 5 3 3 4 8 18 18
14 15 14 14 13 12 12 12 12 13 15 15 16 17 15 10 4 7 5 1 9 4 3 1 1 2 3 1 1 3 5 4 3 3 5 8 3 5 8 3 7 10 17 18 17
15 15 15 14 13 12 12 12 12 13 14 15 15 16 17 2 4 2 8 7 8 6 2 2 5 5 5 6 4 2 6 4 4 5 4 5 4 5 8 5 6 13 20 20 18
16 15 15 14 13 13 12 11 12 12 13 14 14 15 5 2 9 4 3 3 3 3 3 1 4 3 4 5 7 1 3 4 6 5 3 6 3 2 7 2 7 16 19 20 17
16 15 16 14 13 13 12 11 11 12 12 12 13 12 1 3 3 7 6 2 3 3 1 1 2 2 2 3 1 4 7 8 4 4 2 6 2 3 1 6 8 16 18 16 18
17 15 16 14 13 13 12 12 12 12 11 10 9 3 1 14 1 7 3 1 4 3 1 2 3 3 4 5 3 5 6 4 5 4 6 6 3 4 1 7 8 9 10 11 13
18 17 15 15 14 13 12 12 13 11 10 8 5 0 8 5 5 8 3 3 2 3 3 3 4 2 2 4 7 4 5 5 5 1 3 7 12 3 6 10 7 8 8 11 13
18 17 17 15 14 13 12 13 13 11 6 4 0 1 10 9 2 3 5 3 2 1 3 2 4 3 5 3 6 7 2 5 11 2 1 3 5 4 3 6 6 5 6 9 9
19 18 16 15 13 12 12 14 5 3 2 3 2 2 5 0 4 1 2 4 1 2 4 7 6 4 5 6 3 4 4 3 5 6 2 3 2 2 2 5 6 7 8 11 8
19 16 15 13 10 9 7 3 4 2 1 8 6 3 5 8 2 2 3 5 3 9 3 3 7 4 5 4 3 2 2 4 5 7 5 6 3 2 5 4 7 7 8 8 12
20 16 15 11 7 6 1 2 2 3 6 8 3 7 6 3 3 1 2 5 3 2 2 7 5 7 2 3 5 3 3 8 7 4 1 5 3 3 2 4 3 7 9 9 6
18 15 12 9 5 2 2 6 4 6 2 5 5 5 5 7 4 5 6 4 3 3 3 7 5 0 4 3 4 5 6 5 6 1 4 6 5 6 4 4 7 5 6 7 8
18 14 9 6 2 1 5 1 5 5 5 5 3 6 4 3 2 4 4 6 2 7 8 6 4 3 2 5 8 3 6 4 6 3 1 2 4 6 4 7 7 9 9 7 8
17 12 8 3 2 2 1 6 4 3 4 1 3 1 0 7 3 3 3 5 6 4 6 8 3 3 3 6 6 9 4 3 1 3 3 7 5 8 4 5 9 8 9 12 8
17 12 4 3 1 7 6 5 3 7 2 2 4 5 5 1 1 3 3 5 3 3 1 8 2 4 9 4 7 3 2 6 5 3 4 5 3 6 5 7 5 4 8 10 12
21 10 7 3 3 4 3 3 7 4 3 4 5 5 4 4 2 3 5 4 5 4 3 6 5 4 4 3 1 5 7 5 6 7 5 4 2 10 6 7 8 5 6 7 8
18 1 5 5 3 6 3 6 2 4 5 3 4 4 6 5 2 2 5 3 3 5 2 2 7 2 2 4 8 2 8 7 4 2 5 4 2 8 5 4 8 3 8 4 7
8 2 3 5 10 3 6 3 6 5 2 2 3 5 1 3 4 2 5 7 7 9 7 4 6 3 2 3 4 2 2 4 8 3 2 4 7 9 1 6 7 5 3 5 7
2 1 3 3 9 3 6 5 5 5 5 2 6 4 7 4 5 5 5 5 6 13 6 4 2 2 4 1 7 4 6 4 4 3 2 5 6 7 2 6 4 3 5 3 8
1 3 4 2 1 6 4 7 6 7 3 5 4 6 6 8 8 6 9 5 4 4 6 5 3 7 3 6 2 3 3 7 6 4 5 1 8 5 3 6 1 4 5 6 8
2 4 3 1 5 1 2 5 5 7 5 8 5 5 9 8 5 5 9 4 6 8 10 4 5 1 3 2 1 2 3 5 6 3 1 3 9 3 8 7 4 3 7 8 6
3 2 2 3 3 2 5 5 5 4 5 3 7 6 4 7 5 5 4 3 6 6 8 7 2 2 7 8 5 6 3 5 5 3 5 6 8 3 4 3 2 5 7 7 6
1 3 4 4 0 4 2 6 5 4 5 2 3 5 4 4 4 5 3 5 4 4 8 10 4 6 7 5 3 1 1 2 4 4 4 7 8 5 5 3 2 6 6 6 4
4 0 1 2 3 2 1 4 5 5 1 5 7 6 2 4 4 5 2 3 5 5 4 5 4 1 2 2 2 2 2 2 6 4 5 3 5 3 4 5 2 3 5 6 6
3 3 4 2 2 1 4 4 4 3 2 6 9 6 8 5 1 6 4 2 1 5 4 3 2 3 2 2 1 3 4 1 1 2 5 3 3 4 2 2 2 4 6 5 6
2 1 3 2 2 2 3 6 4 2 4 3 5 5 8 2 0 2 3 3 4 4 2 3 6 4 6 4 4 4 4 1 2 1 2 2 2 1 4 6 4 4 6 5 4
Wind_Direction
341 336 332 330 329 329 331 333 334 335 334 332 330 330 329 328 316 170 259 215 145 166 180 350 158 221 130 209 189 133 56 275 250 123 216 180 159 176 20 112 152 165 162 158 141
341 337 332 327 325 325 326 329 330 332 331 330 328 328 328 333 315 268 245 231 149 270 42 32 340 11 102 289 205 101 118 231 220 168 186 188 178 160 166 162 180 126 84 130 142
340 337 333 327 323 321 321 323 325 328 328 327 326 326 324 326 335 252 52 113 152 130 109 203 275 76 42 17 353 171 183 208 264 178 146 204 219 158 124 236 212 164 149 150 153
338 337 334 326 322 318 317 319 321 324 324 324 326 326 320 301 241 267 76 116 137 126 82 25 3 31 20 349 314 22 260 198 232 208 162 168 171 172 188 213 218 156 159 155 167
337 335 332 327 321 316 315 314 315 318 319 322 325 328 343 4 252 345 90 121 105 107 91 53 46 66 349 314 333 86 276 290 303 253 169 123 46 278 236 57 124 143 162 170 175
335 330 330 325 320 316 313 310 309 312 315 320 324 322 359 254 240 27 359 63 62 70 84 116 110 180 233 276 323 314 297 283 293 245 226 151 145 60 204 122 126 157 172 177 179
334 329 328 324 318 314 310 306 303 306 309 313 324 324 62 233 27 349 306 165 135 116 6 214 134 49 349 321 315 276 289 315 228 220 210 129 284 199 161 130 142 166 172 183 191
334 330 328 323 317 312 306 300 299 298 298 299 310 339 245 262 318 314 179 285 271 210 202 193 145 171 173 295 4 358 46 9 313 147 236 133 254 38 167 141 147 156 184 192 204
336 331 328 322 316 311 303 297 294 288 277 267 47 86 269 315 282 257 160 179 216 174 231 136 99 79 25 50 9 4 302 334 329 273 161 148 273 339 101 122 166 162 179 217 209
338 335 328 320 315 312 304 294 281 296 201 204 263 359 278 102 282 168 150 141 100 337 50 48 50 48 30 63 275 302 345 304 237 294 19 98 5 22 68 176 196 214 209 220 204
339 332 330 324 316 318 338 85 34 353 263 190 197 233 293 297 275 181 162 102 79 54 79 16 53 253 232 201 226 298 244 263 256 265 219 87 91 64 227 263 247 248 252 233 214
339 334 335 326 316 325 353 162 175 235 308 222 237 286 272 221 311 145 139 114 102 135 93 22 260 244 219 207 228 205 287 284 289 327 101 95 64 331 220 248 285 272 258 245 204
333 333 335 323 314 325 214 228 14 16 99 295 184 204 232 141 203 218 113 112 117 91 140 165 236 135 187 236 210 219 199 233 233 5 62 114 5 321 288 353 330 348 276 268 229
334 334 340 317 328 217 250 289 308 185 58 277 262 274 142 188 309 182 152 131 66 187 162 223 266 242 228 227 162 298 213 238 270 77 229 57 260 281 311 319 322 313 322 292 262
333 334 337 235 293 199 204 335 116 67 43 157 198 58 33 144 160 230 202 62 162 180 106 255 253 271 308 241 172 226 177 205 21 92 107 355 83 267 26 280 275 279 290 294 307
327 312 297 195 240 246 318 326 47 43 269 196 133 154 122 33 34 98 113 63 144 181 239 240 275 216 214 214 189 121 96 44 55 62 38 323 94 275 193 212 286 278 274 297 305
330 305 187 185 218 326 304 66 46 129 329 185 178 157 147 145 214 125 140 144 162 105 312 320 252 265 167 147 88 74 54 354 3 8 227 336 48 243 178 214 231 280 331 293 315
340 120 236 239 321 344 77 51 156 239 236 293 110 88 154 155 231 117 113 168 213 92 125 147 340 222 160 198 177 124 146 151 196 222 266 319 284 269 189 255 274 267 251 259 296
333 243 264 252 204 333 78 81 218 214 258 139 79 100 216 216 165 118 167 191 211 167 182 152 274 316 352 170 125 130 72 163 101 7 37 288 293 304 352 285 289 359 41 235 287
298 291 273 98 153 90 76 243 252 217 333 341 185 158 171 203 144 152 184 209 218 184 150 201 345 318 290 55 43 104 148 61 20 133 282 298 287 243 315 291 301 86 92 229 268
301 67 317 99 174 51 164 233 274 248 213 197 226 167 206 167 167 185 199 260 215 128 134 138 114 293 35 25 44 34 44 53 111 112 154 256 270 222 245 226 209 27 0 333 324
356 67 326 75 59 16 194 211 284 279 244 245 176 193 182 152 152 213 205 239 134 142 164 179 138 173 203 98 194 20 106 114 112 240 66 151 272 312 252 235 133 30 3 343 337
56 118 341 60 143 270 287 281 243 292 285 273 208 196 182 150 118 189 185 6 162 137 166 183 24 51 353 357 10 66 10 94 110 90 202 144 264 334 300 222 72 13 4 343 14
34 78 335 50 93 140 347 277 286 266 240 324 312 75 98 77 21 154 109 35 28 74 68 87 104 147 185 204 170 115 269 170 126 123 188 226 272 292 277 291 340 28 16 21 44
20 18 192 240 291 239 146 278 301 294 354 1 37 37 47 98 59 60 58 56 31 4 61 94 122 197 197 262 210 225 256 212 187 210 168 257 233 328 279 241 264 51 77 49 46
63 33 354 271 320 203 177 242 236 276 329 351 100 47 71 84 173 163 136 68 172 19 63 14 164 111 278 181 291 285 284 237 182 139 266 299 291 299 273 89 93 100 86 67 46
331 333 107 268 338 127 206 263 263 103 33 106 151 97 61 45 264 53 71 134 163 153 132 74 128 96 255 10 26 344 238 224 149 121 260 241 275 243 62 77 80 89 95 96 90